Regional Weather Roundup
Issued by NWS

Home | Current Version | Previous Version | Graphics & Text | Print | Product List | Glossary On
Versions: 1 2 3 4 5 6 7 8 9 10 11 12 13 14 15 16 17 18 19 20 21 22 23 24 25 26 27 28 29 30 31 32 33 34 35 36 37 38 39 40 41 42 43 44 45 46 47 48 49 50
000
ASUS43 KBIS 270701
RWRND

NORTH DAKOTA REGIONAL WEATHER ROUNDUP
NATIONAL WEATHER SERVICE BISMARCK ND
200 AM CDT MON APR 27 2015

NOTE: "FAIR" INDICATES FEW OR NO CLOUDS BELOW 12,000 FEET WITH NO
SIGNIFICANT WEATHER AND/OR OBSTRUCTIONS TO VISIBILITY.


NDZ001>003-009>011-017-270800-
NORTHWEST NORTH DAKOTA

CITY           SKY/WX    TMP DP  RH WIND       PRES   REMARKS
WILLISTON      LGT RAIN  42  38  85 N9        30.24R
MINOT          LGT RAIN  45  40  82 NW10      30.19R
$$

NDZ018>021-031>035-040>046-270800-
SOUTHWEST NORTH DAKOTA

CITY           SKY/WX    TMP DP  RH WIND       PRES   REMARKS
BISMARCK       MOCLDY    45  43  93 N6        30.18S FOG
DICKINSON      LGT RAIN  43  41  93 NW5       30.18R
GARRISON         N/A     45  43  93 NW9       30.18R
HETTINGER ARPT LGT RAIN  43  41  93 N3        30.19S FOG
$$

NDZ004>008-012>016-024-026-027-054-270800-
NORTHEAST NORTH DAKOTA

CITY           SKY/WX    TMP DP  RH WIND       PRES   REMARKS
GRAND FORKS    CLEAR     42  27  55 SW3       30.16S
DEVILS LAKE    CLOUDY    37  34  87 W3        30.16S VSB<1/4
$$

NDZ022-023-025-028>030-036>039-047>053-270800-
SOUTHEAST NORTH DAKOTA

CITY           SKY/WX    TMP DP  RH WIND       PRES   REMARKS
FARGO          CLEAR     42  26  53 S3        30.16S
JAMESTOWN      MOCLDY    42  32  67 CALM      30.17R
$$




USA.gov is the U.S. government's official web portal to all federal, state and local government web resources and services.